STARLINK-5735 (55603 NORAD) Tracking and Keplerian Element Data

This shows tracking and keplerian element data for the satellite.

Feedback or suggestion? Click here.




ElementValue
Catalog55603
NameSTARLINK-5735
Epoch Orbit660
Epoch Day85.25001157
Epoch Year2023
RAAN103.8612
Inclination42.9983
Eccentricity0.0001332
Argument of Perigee269.298
Mean Anonmoly96.4243
Mean Motion15.48931081
Decay Rate-0.0004212
L11 55603U 23020AL 23085.25001157 -.00042120 00000+0 -75916-3 0 9996
L22 55603 42.9983 103.8612 0001332 269.2980 96.4243 15.48931081 6602



Live tracking and technical data element details for STARLINK-5735 (NORAD 55603). STARLINK-5735 can be tracked NOW for your location showing map with azimuth and elevation plus other details from your city location.







IsCatalogInMostPopularTable: catalog: 55603, numindb: -1

Insert: records affected: 1


GetName: 55603 STARLINK-5735

Hit Count: inserted at: Tue, 28 Mar 2023 02:54:18 GMT